Hill Air Force Base, UT

3:25 AM MDT on September 26, 2016 (GMT -0600)
Hill Air Force Base

Weather History for KHIF - November, 2012

Change the Weather History Date:

Thursday, November 29, 2012

  Actual Average Record
Temperature  
Mean Temperature 48 °F -  
Max Temperature 55 °F 39 °F 60 °F (2014)
Min Temperature 42 °F 25 °F 10 °F (2004)
Degree Days  
Heating Degree Days 16    
Moisture  
Dew Point 29 °F    
Average Humidity 48    
Maximum Humidity 58    
Minimum Humidity 38    
Precipitation  
Precipitation 0.00 in - - ()
Sea Level Pressure  
Sea Level Pressure 30.01 in    
Wind  
Wind Speed 9 mph (South)    
Max Wind Speed 14 mph    
Max Gust Speed -    
Visibility 10 miles    
Events      
Averages and records for this station are not official NWS values.
T = Trace of Precipitation, MM = Missing Value Source: NWS Daily Summary

Daily Weather History Graph

Daily Weather History Graph

Search for Another Location

Airport or City:

Trip Planner

Search our weather history database for the weather conditions in past years. The results will help you decide how hot, cold, wet, or windy it might be!

Date:

Astronomy

Nov. 29, 2012 Rise Set
Actual Time 7:32 AM MST 5:00 PM MST
Civil Twilight 7:01 AM MST 5:30 PM MST
Nautical Twilight 6:27 AM MST 6:05 PM MST
Astronomical Twilight 5:54 AM MST 6:38 PM MST
Moon 6:06 PM MST (11/29) 8:21 AM MST (11/29)
Length of Visible Light 10h 29m
Length of Day
9h 28m
Full, 99% of the Moon is Illuminated
Nov 29
Full
Dec 6
Last Quarter
Dec 13
New
Dec 19
First Quarter
Dec 28
Full

Hourly Weather History & Observations

Time (MST) Temp. Windchill Dew Point Humidity Pressure Visibility Wind Dir Wind Speed Gust Speed Precip Events Conditions
12:53 AM 48.2 °F - 26.6 °F 43% 30.05 in 10.0 mi SSW 11.5 mph - N/A   Scattered Clouds
12:58 AM 46.8 °F - 25.9 °F 44% 29.98 in 10.0 mi SSW 10.4 mph - N/A   Scattered Clouds
1:13 AM 44.6 °F 39.7 °F 26.6 °F 49% 30.06 in 10.0 mi SSW 9.2 mph - N/A   Mostly Cloudy
1:48 AM 46.4 °F 41.1 °F 26.6 °F 46% 30.06 in 10.0 mi SSE 11.5 mph - N/A   Scattered Clouds
1:58 AM 44.1 °F 38.1 °F 26.2 °F 50% 29.99 in 10.0 mi South 11.5 mph - N/A   Partly Cloudy
2:58 AM 44.2 °F 41.8 °F 26.2 °F 49% 30.01 in 10.0 mi West 4.6 mph - N/A   Clear
3:58 AM 43.3 °F 39.2 °F 28.9 °F 57% 30.02 in 10.0 mi North 6.9 mph - N/A   Scattered Clouds
4:58 AM 45.1 °F 42.8 °F 27.1 °F 49% 30.02 in 10.0 mi North 4.6 mph - N/A   Mostly Cloudy
5:58 AM 44.8 °F 43.3 °F 25.7 °F 47% 30.03 in 10.0 mi North 3.5 mph - N/A   Partly Cloudy
6:58 AM 44.6 °F - 25.7 °F 48% 30.04 in 10.0 mi Calm Calm - N/A   Clear
7:58 AM 42.4 °F 38.1 °F 26.2 °F 53% 30.05 in 10.0 mi SSW 6.9 mph - N/A   Clear
8:58 AM 45.0 °F 41.8 °F 29.3 °F 54% 30.06 in 10.0 mi South 5.8 mph - N/A   Clear
9:58 AM 50.9 °F - 28.6 °F 42% 30.07 in 10.0 mi SSE 9.2 mph - N/A   Mostly Cloudy
10:58 AM 52.0 °F - 28.2 °F 40% 30.05 in 10.0 mi South 9.2 mph - N/A   Clear
11:58 AM 52.7 °F - 28.9 °F 40% 30.04 in 10.0 mi South 10.4 mph - N/A   Clear
12:58 PM 54.9 °F - 29.7 °F 38% 30.01 in 10.0 mi South 11.5 mph - N/A   Clear
1:58 PM 55.9 °F - 30.9 °F 39% 30.00 in 10.0 mi SSW 13.8 mph - N/A   Clear
2:58 PM 55.0 °F - 31.1 °F 40% 29.99 in 10.0 mi SW 9.2 mph - N/A   Clear
3:58 PM 53.2 °F - 32.0 °F 44% 29.99 in 10.0 mi SSW 5.8 mph - N/A   Partly Cloudy
4:58 PM 49.5 °F - 31.8 °F 51% 29.99 in 10.0 mi ESE 4.6 mph - N/A   Partly Cloudy
5:58 PM 49.6 °F - 32.5 °F 52% 29.99 in 10.0 mi SSE 5.8 mph - N/A   Clear
6:58 PM 50.7 °F - 32.4 °F 49% 30.00 in 10.0 mi South 9.2 mph - N/A   Clear
7:58 PM 47.1 °F - 32.9 °F 58% 30.01 in 10.0 mi SSE 4.6 mph - N/A   Clear
8:58 PM 47.1 °F - 32.7 °F 57% 29.99 in 10.0 mi SE 5.8 mph - N/A   Clear
9:58 PM 49.5 °F - 33.6 °F 54% 29.96 in 10.0 mi South 11.5 mph - N/A   Clear
10:58 PM 48.6 °F - 33.4 °F 56% 29.98 in 10.0 mi South 10.4 mph - N/A   Scattered Clouds
11:58 PM 49.1 °F - 34.2 °F 56% 29.96 in 10.0 mi South 11.5 mph - N/A   Clear